• Processing (Info)

  • MPEC 2006-D33 : 2006 DP11

    The following Minor Planet Electronic Circular may be linked-to from your own Web pages, but must not otherwise be redistributed electronically.

    A form allowing access to any MPEC is at the bottom of this page.


    Read MPEC 2006-D32 Read MPEC 2006-D34


    M.P.E.C. 2006-D33                                Issued 2006 Feb. 23, 22:08 UT
    
         The Minor Planet Electronic Circulars contain information on unusual
             minor planets and routine data on comets.  They are published
       on behalf of Commission 20 of the International Astronomical Union by the
              Minor Planet Center, Smithsonian Astrophysical Observatory,
                              Cambridge, MA 02138, U.S.A.
    
                      Supported in part by the Brinson Foundation
                      Supported in part by the TABASGO Foundation
                 Prepared using the Tamkin Foundation Computer Network
    
                                  MPC@CFA.HARVARD.EDU
              URL http://cfa-www.harvard.edu/iau/mpc.html  ISSN 1523-6714
    
                                       2006 DP11
    
    Observations:
         K06D11P* C2006 02 22.36085 13 17 28.96 +17 49 02.8          18.9   ED033704
         K06D11P  C2006 02 22.38611 13 17 18.57 +17 49 11.5          19.2   ED033704
         K06D11P  C2006 02 22.39877 13 17 13.31 +17 49 15.6          19.5   ED033704
         K06D11P  C2006 02 22.41143 13 17 08.09 +17 49 19.4          19.2   ED033704
         K06D11P  C2006 02 23.28230 13 11 22.59 +17 53 22.9          18.4 R ED033649
         K06D11P  C2006 02 23.28407 13 11 21.88 +17 53 23.3          18.4 R ED033649
         K06D11P  C2006 02 23.28584 13 11 21.16 +17 53 24.0          18.1 R ED033649
         K06D11P  C2006 02 23.28762 13 11 20.46 +17 53 24.3          18.4 R ED033649
         K06D11P  C2006 02 23.29938 13 11 15.76 +17 53 27.3          18.6 R ED033734
         K06D11P  C2006 02 23.30404 13 11 13.87 +17 53 28.7          18.5 R ED033734
         K06D11P  C2006 02 23.30869 13 11 12.02 +17 53 30.2          18.6 R ED033734
         K06D11P  C2006 02 23.31331 13 11 10.63 +17 53 36.3          18.7 R ED033854
         K06D11P  C2006 02 23.31628 13 11 09.41 +17 53 34.0          18.8 R ED033854
         K06D11P  C2006 02 23.31822 13 11 08.68 +17 53 35.2          18.8 R ED033854
         K06D11P  C2006 02 23.31919 13 11 08.25 +17 53 34.7          18.8 R ED033854
         K06D11P 5C2006 02 23.33356 13 11 02.63 +17 53 38.0          18.5 R ED033673
         K06D11P 5C2006 02 23.33981 13 11 00.15 +17 53 39.5                 ED033673
         K06D11P 5C2006 02 23.34792 13 10 56.89 +17 53 41.8                 ED033673
         K06D11P 5C2006 02 23.35370 13 10 54.52 +17 53 43.3                 ED033673
         K06D11P 5C2006 02 23.48995 13 09 59.86 +17 54 18.7          18.5 R ED033673
         K06D11P 5C2006 02 23.49330 13 09 58.51 +17 54 19.0                 ED033673
         K06D11P 5C2006 02 23.49631 13 09 57.27 +17 54 19.8                 ED033673
    
    Observer details:
    649 Powell Observatory, Louisburg.  Observer R. Trentman.  0.75-m Newtonian
        reflector + CCD.
    673 Table Mountain Observatory, Wrightwood.  Observers J. Young, D. Mayes.
        Measurer J. Young.  0.4-m f/8.4 Cassegrain + CCD, 0.6-m f/16 Cassegrain
        + CCD.
    704 Lincoln Laboratory ETS, New Mexico.  Observers M. Bezpalko, L. Manguso,
        D. Torres, R. Kracke, M. Blythe, H. Love.  Measurers J. Stuart, J. Kommers.
        1.0-m f/2.15 reflector + CCD.
    734 Farpoint Observatory.  Observer G. Hug.  Measurer D. Tibbets.  0.7-m
        reflector + CCD.
    854 Sabino Canyon Observatory, Tucson.  Observer J. E. McGaha.  0.36-m f/10.0
        Schmidt-Cassegrain + CCD.
    
    Orbital elements:
    2006 DP11                                                Earth MOID = 0.1148 AU
    Epoch 2006 Mar. 6.0 TT = JDT 2453800.5                  MPC
    M  28.20489              (2000.0)            P               Q
    n   0.36815613     Peri.   29.29375     +0.57329061     -0.81727877
    a   1.9280340      Node    25.85982     +0.72335320     +0.47144849
    e   0.6997002      Incl.    7.67497     +0.38483505     +0.33134837
    P   2.68           H   19.8           G   0.15           U   9
    Residuals in seconds of arc
    060222 704  0.7-  0.1-    060223 734  0.0   0.4-    060223 673  0.3+  0.0
    060222 704  0.3+  0.2+    060223 734  0.3-  0.3-    060223 673  0.1+  0.0
    060222 704  0.0   0.2+    060223 734  0.1-  0.1-    060223 673  0.6-  0.1-
    060222 704  0.4+  0.1-    060223 854  0.2+  2.7+    060223 673  0.3+  0.6+
    060223 649  0.1+  0.2-    060223 854  0.2-  0.4-    060223 673  0.2+  0.1+
    060223 649  0.1+  0.3-    060223 854  0.5+  0.2+    060223 673  0.3-  0.2+
    060223 649  0.1-  0.1-    060223 854  0.1-  0.6-
    060223 649  0.1+  0.3-    060223 673  0.1-  0.3+
    
    Ephemeris:
    2006 DP11                a,e,i = 1.93, 0.70, 8                   q = 0.5790
    Date    TT    R. A. (2000) Decl.     Delta      r     Elong.  Phase     V
    2006 02 24    13 06.72   +17 56.4    0.292    1.230   140.6    30.7    18.9
    2006 03 06    12 12.54   +17 48.0    0.369    1.344   159.7    14.8    19.1
    2006 03 16    11 36.67   +16 47.2    0.470    1.454   165.1    10.2    19.6
    2006 03 26    11 14.90   +15 27.9    0.593    1.559   156.4    14.8    20.5
    2006 04 05    11 03.10   +14 03.7    0.735    1.660   145.8    19.8    21.2
    2006 04 15    10 58.21   +12 38.9    0.892    1.756   135.8    23.5    21.9
    
    Kyle E. Smalley              (C) Copyright 2006 MPC           M.P.E.C. 2006-D33
    

    Read MPEC 2006-D32 Read MPEC 2006-D34


    MPEC number:

    Enter an MPEC number in one of the following forms:

    • 1997-B01 (the full form)
    • J97B01 (the packed version of the full form)
    • B01 (the abbreviated form)